When you browse on this site, cookies collect data to enhance your experience and personalize the content and advertising you see.
Visit our Privacy Policy to learn more. By continuing to use the site, you agree to this use of cookies and data.
  • In Österreich
  • Länderverzeichnis
  • Für 7 Tage
  • Wassertemperatur
  • Wetterkarte
  • News
  • Widgets
  • user-avatar
    Anmelden

    Stündliche Wetter Rincon

    Heute, 18 August, Sonntag

    Zeit Temperatur Niederschläge Wind Luftdruck Luftfeuchtigkeit
    00:00 +27°C° 0 mm 3 m/S 761 mmHg 86%
    01:00 +26°C° 0 mm 3 m/S 761 mmHg 86%
    02:00 +26°C° 0 mm 4 m/S 761 mmHg 86%
    03:00 +26°C° 0 mm 4 m/S 760 mmHg 88%
    04:00 +26°C° 0 mm 3 m/S 760 mmHg 89%
    05:00 +26°C° 0 mm 3 m/S 760 mmHg 90%
    06:00 +27°C° 0 mm 3 m/S 761 mmHg 87%
    07:00 +28°C° 0 mm 3 m/S 761 mmHg 85%
    08:00 +29°C° 0 mm 3 m/S 761 mmHg 82%
    09:00 +30°C° 0 mm 3 m/S 762 mmHg 76%
    10:00 +31°C° 0 mm 3 m/S 762 mmHg 69%
    11:00 +34°C° 0 mm 3 m/S 762 mmHg 63%
    12:00 +34°C° 0.6 mm 3 m/S 762 mmHg 63%
    13:00 +34°C° 0.6 mm 4 m/S 761 mmHg 63%
    14:00 +34°C° 0.6 mm 4 m/S 761 mmHg 63%
    15:00 +34°C° 1.3 mm 4 m/S 761 mmHg 65%
    16:00 +33°C° 1.3 mm 4 m/S 760 mmHg 67%
    17:00 +33°C° 1.3 mm 4 m/S 760 mmHg 69%
    18:00 +30°C° 0.4 mm 4 m/S 760 mmHg 75%
    19:00 +29°C° 0.4 mm 5 m/S 760 mmHg 81%
    20:00 +28°C° 0.4 mm 5 m/S 761 mmHg 87%
    21:00 +28°C° 0.1 mm 5 m/S 761 mmHg 88%
    22:00 +27°C° 0.1 mm 5 m/S 761 mmHg 89%
    23:00 +27°C° 0.1 mm 5 m/S 761 mmHg 90%

    Morgen, 19 August, Montag

    Zeit Temperatur Niederschläge Wind Luftdruck Luftfeuchtigkeit
    00:00 +27°C° 0.2 mm 5 m/S 761 mmHg 90%
    01:00 +27°C° 0.2 mm 6 m/S 760 mmHg 90%
    02:00 +27°C° 0.2 mm 6 m/S 760 mmHg 90%
    03:00 +27°C° 0.5 mm 5 m/S 760 mmHg 90%
    04:00 +27°C° 0.5 mm 5 m/S 760 mmHg 89%
    05:00 +26°C° 0.5 mm 4 m/S 760 mmHg 89%
    06:00 +27°C° 0.2 mm 4 m/S 760 mmHg 86%
    07:00 +28°C° 0.2 mm 4 m/S 761 mmHg 83%
    08:00 +29°C° 0.2 mm 4 m/S 761 mmHg 79%
    09:00 +32°C° 0 mm 4 m/S 761 mmHg 73%
    10:00 +33°C° 0 mm 4 m/S 761 mmHg 68%
    11:00 +34°C° 0 mm 3 m/S 762 mmHg 62%
    12:00 +34°C° 0.5 mm 4 m/S 761 mmHg 65%
    13:00 +33°C° 0.5 mm 4 m/S 761 mmHg 69%
    14:00 +33°C° 0.5 mm 4 m/S 761 mmHg 72%
    15:00 +32°C° 0.4 mm 4 m/S 760 mmHg 75%
    16:00 +32°C° 0.4 mm 4 m/S 760 mmHg 78%
    17:00 +30°C° 0.4 mm 4 m/S 760 mmHg 81%
    18:00 +29°C° 0.1 mm 4 m/S 760 mmHg 83%
    19:00 +29°C° 0.1 mm 4 m/S 760 mmHg 86%
    20:00 +28°C° 0.1 mm 5 m/S 760 mmHg 88%
    21:00 +28°C° 0.2 mm 4 m/S 761 mmHg 88%
    22:00 +28°C° 0.2 mm 4 m/S 761 mmHg 88%
    23:00 +27°C° 0.2 mm 4 m/S 761 mmHg 88%

    übermorgen, 20 August, Dienstag

    Zeit Temperatur Niederschläge Wind Luftdruck Luftfeuchtigkeit
    00:00 +27°C° 0 mm 4 m/S 761 mmHg 88%
    01:00 +27°C° 0 mm 4 m/S 760 mmHg 88%
    02:00 +27°C° 0 mm 3 m/S 760 mmHg 87%
    03:00 +27°C° 0 mm 3 m/S 760 mmHg 87%
    04:00 +27°C° 0 mm 3 m/S 760 mmHg 87%
    05:00 +27°C° 0 mm 3 m/S 760 mmHg 87%
    06:00 +27°C° 0 mm 3 m/S 760 mmHg 84%
    07:00 +28°C° 0 mm 2 m/S 760 mmHg 82%
    08:00 +29°C° 0 mm 2 m/S 761 mmHg 79%
    09:00 +31°C° 0.1 mm 2 m/S 761 mmHg 74%
    10:00 +32°C° 0.1 mm 2 m/S 762 mmHg 69%
    11:00 +34°C° 0.1 mm 2 m/S 762 mmHg 64%
    12:00 +31°C° 2.8 mm 3 m/S 762 mmHg 73%
    13:00 +29°C° 2.8 mm 4 m/S 761 mmHg 83%
    14:00 +28°C° 2.8 mm 5 m/S 761 mmHg 92%
    15:00 +27°C° 1.8 mm 4 m/S 761 mmHg 91%
    16:00 +27°C° 1.8 mm 4 m/S 761 mmHg 90%
    17:00 +27°C° 1.8 mm 3 m/S 761 mmHg 89%
    18:00 +27°C° 0 mm 3 m/S 761 mmHg 88%
    19:00 +27°C° 0 mm 3 m/S 761 mmHg 87%
    20:00 +27°C° 0 mm 3 m/S 761 mmHg 86%
    21:00 +26°C° 0 mm 4 m/S 761 mmHg 87%
    22:00 +26°C° 0 mm 5 m/S 761 mmHg 89%
    23:00 +26°C° 0 mm 6 m/S 761 mmHg 90%

    21 August, Mittwoch

    Zeit Temperatur Niederschläge Wind Luftdruck Luftfeuchtigkeit
    00:00 +26°C° 0 mm 5 m/S 761 mmHg 90%
    01:00 +26°C° 0 mm 4 m/S 761 mmHg 90%
    02:00 +26°C° 0 mm 4 m/S 760 mmHg 91%
    03:00 +26°C° 0 mm 4 m/S 760 mmHg 90%
    04:00 +26°C° 0 mm 4 m/S 760 mmHg 90%
    05:00 +26°C° 0 mm 4 m/S 760 mmHg 90%
    06:00 +26°C° 0 mm 4 m/S 761 mmHg 88%
    07:00 +27°C° 0 mm 4 m/S 761 mmHg 86%
    08:00 +28°C° 0 mm 4 m/S 761 mmHg 85%
    09:00 +29°C° 0 mm 3 m/S 761 mmHg 78%
    10:00 +31°C° 0 mm 3 m/S 762 mmHg 72%
    11:00 +33°C° 0 mm 3 m/S 762 mmHg 65%
    12:00 +33°C° 0.2 mm 3 m/S 761 mmHg 68%
    13:00 +33°C° 0.2 mm 3 m/S 761 mmHg 71%
    14:00 +31°C° 0.2 mm 3 m/S 761 mmHg 74%
    15:00 +32°C° 0.8 mm 4 m/S 761 mmHg 76%
    16:00 +30°C° 0.8 mm 4 m/S 760 mmHg 79%
    17:00 +30°C° 0.8 mm 4 m/S 760 mmHg 81%
    18:00 +29°C° 0.4 mm 4 m/S 760 mmHg 84%
    19:00 +28°C° 0.4 mm 4 m/S 760 mmHg 87%
    20:00 +27°C° 0.4 mm 4 m/S 761 mmHg 90%
    21:00 +27°C° 0.1 mm 4 m/S 761 mmHg 90%
    22:00 +27°C° 0.1 mm 4 m/S 761 mmHg 91%
    23:00 +27°C° 0.1 mm 4 m/S 762 mmHg 91%

    22 August, Donnerstag

    Zeit Temperatur Niederschläge Wind Luftdruck Luftfeuchtigkeit
    00:00 +27°C° 0 mm 4 m/S 761 mmHg 91%
    01:00 +26°C° 0 mm 3 m/S 761 mmHg 91%
    02:00 +26°C° 0 mm 3 m/S 760 mmHg 91%
    03:00 +26°C° 0 mm 3 m/S 760 mmHg 90%
    04:00 +26°C° 0 mm 3 m/S 760 mmHg 90%
    05:00 +26°C° 0 mm 3 m/S 760 mmHg 89%
    06:00 +26°C° 0 mm 3 m/S 760 mmHg 87%
    07:00 +27°C° 0 mm 3 m/S 761 mmHg 84%
    08:00 +28°C° 0 mm 3 m/S 761 mmHg 82%
    09:00 +30°C° 0 mm 2 m/S 761 mmHg 73%
    10:00 +31°C° 0 mm 2 m/S 762 mmHg 65%
    11:00 +34°C° 0 mm 2 m/S 762 mmHg 56%
    12:00 +34°C° 0 mm 3 m/S 761 mmHg 59%
    13:00 +34°C° 0 mm 3 m/S 761 mmHg 62%
    14:00 +34°C° 0 mm 4 m/S 761 mmHg 64%
    15:00 +33°C° 0.5 mm 4 m/S 760 mmHg 68%
    16:00 +32°C° 0.5 mm 4 m/S 760 mmHg 71%
    17:00 +32°C° 0.5 mm 4 m/S 760 mmHg 75%
    18:00 +30°C° 0.1 mm 5 m/S 760 mmHg 78%
    19:00 +29°C° 0.1 mm 5 m/S 760 mmHg 81%
    20:00 +28°C° 0.1 mm 5 m/S 761 mmHg 84%
    21:00 +27°C° 0 mm 5 m/S 761 mmHg 86%
    22:00 +27°C° 0 mm 4 m/S 761 mmHg 87%
    23:00 +26°C° 0 mm 4 m/S 762 mmHg 88%

    23 August, Freitag

    Zeit Temperatur Niederschläge Wind Luftdruck Luftfeuchtigkeit
    00:00 +26°C° 0 mm 4 m/S 761 mmHg 88%
    01:00 +26°C° 0 mm 4 m/S 761 mmHg 88%
    02:00 +26°C° 0 mm 3 m/S 761 mmHg 88%
    03:00 +26°C° 0 mm 3 m/S 761 mmHg 88%
    04:00 +26°C° 0 mm 3 m/S 761 mmHg 88%
    05:00 +26°C° 0 mm 2 m/S 761 mmHg 88%
    06:00 +26°C° 0 mm 2 m/S 761 mmHg 85%
    07:00 +27°C° 0 mm 2 m/S 761 mmHg 82%
    08:00 +28°C° 0 mm 2 m/S 762 mmHg 79%
    09:00 +30°C° 0 mm 2 m/S 762 mmHg 74%
    10:00 +31°C° 0 mm 2 m/S 762 mmHg 68%
    11:00 +34°C° 0 mm 2 m/S 762 mmHg 63%
    12:00 +34°C° 0.1 mm 3 m/S 762 mmHg 64%
    13:00 +34°C° 0.1 mm 3 m/S 761 mmHg 66%
    14:00 +33°C° 0.1 mm 4 m/S 761 mmHg 68%
    15:00 +33°C° 0.9 mm 4 m/S 761 mmHg 70%
    16:00 +33°C° 0.9 mm 4 m/S 760 mmHg 73%
    17:00 +31°C° 0.9 mm 3 m/S 760 mmHg 75%
    18:00 +30°C° 0.5 mm 4 m/S 760 mmHg 79%
    19:00 +29°C° 0.5 mm 4 m/S 761 mmHg 83%
    20:00 +28°C° 0.5 mm 4 m/S 761 mmHg 87%
    21:00 +28°C° 0 mm 4 m/S 761 mmHg 88%
    22:00 +27°C° 0 mm 4 m/S 762 mmHg 89%
    23:00 +27°C° 0 mm 4 m/S 762 mmHg 90%
    Mehr zeigen